Location: Godiavel Galaoual
(15.2485°N, 12.6604°W)
Time: 01:33:05
(UTC+00:00)

Explorer 7 - Pass Details

Date: 14 June 2021
Orbit: 484 x 676 km, 50.3° (Epoch: 29 July)

Event Time Altitude Azimuth Distance (km) Brightness Sun altitude
Rises 07:54:04 0° 321° (NW) 2,681 10.1 20.2°
Reaches altitude 10° 07:56:20 10° 322° (NW) 1,759 9.3 20.7°
Maximum altitude 08:00:19 86° 53° (NE) 509 7.1 21.6°
Drops below altitude 10° 08:04:06 10° 140° (SE) 1,678 9.6 22.5°
Sets 08:06:14 0° 141° (SE) 2,544 10.5 22.9°
